{"data":{"norad_id":66610,"epoch":"2026-05-24T20:25:15.525696Z","epoch_age_seconds":87398,"freshness":"FRESH","line1":"1 66610U 25270Y   26144.85087414  .00021822  00000+0  79977-3 0  9995","line2":"2 66610  43.0008 346.0683 0001493 273.6624  86.4057 15.27596239 29463","mean_motion":15.27596239,"eccentricity":0.0001493,"inclination_deg":43.0008,"raan_deg":346.0683,"arg_perigee_deg":273.6624,"mean_anomaly_deg":86.4057,"bstar":0.00079977,"rev_number":2946,"period_min":94.26574661788,"perigee_km":481.97610323803,"apogee_km":484.02483888689,"semimajor_km":6861.1374710625,"source":"CELESTRAK","updated_at":"2026-05-25T13:38:21.292045Z"}}